When you browse on this site, cookies collect data to enhance your experience and personalize the content and advertising you see.
Visit our Privacy Policy to learn more. By continuing to use the site, you agree to this use of cookies and data.
  • In Österreich
  • Länderverzeichnis
  • Für 7 Tage
  • Wassertemperatur
  • Satellitenkarten
  • Wetterkarte
  • News
  • Widgets
  • user-avatar
    Anmelden

    Stündliche Wetter Tibissa

    Heute, 21 November, Mittwoch

    Zeit Temperatur Niederschläge Wind Luftdruck Luftfeuchtigkeit
    00:00 +10°C° 0 mm 4 m/S 683 mmHg 63%
    01:00 +10°C° 0 mm 4 m/S 683 mmHg 62%
    02:00 +8°C° 0 mm 4 m/S 683 mmHg 61%
    03:00 +8°C° 0 mm 4 m/S 683 mmHg 61%
    04:00 +8°C° 0 mm 4 m/S 683 mmHg 60%
    05:00 +9°C° 0 mm 3 m/S 683 mmHg 60%
    06:00 +9°C° 0 mm 3 m/S 683 mmHg 60%
    07:00 +9°C° 0 mm 3 m/S 684 mmHg 59%
    08:00 +10°C° 0 mm 4 m/S 685 mmHg 53%
    09:00 +12°C° 0 mm 4 m/S 685 mmHg 47%
    10:00 +14°C° 0 mm 5 m/S 686 mmHg 41%
    11:00 +15°C° 0 mm 5 m/S 686 mmHg 38%
    12:00 +16°C° 0 mm 5 m/S 687 mmHg 36%
    13:00 +17°C° 0 mm 5 m/S 687 mmHg 33%
    14:00 +17°C° 0 mm 5 m/S 687 mmHg 34%
    15:00 +18°C° 0 mm 4 m/S 687 mmHg 34%
    16:00 +18°C° 0 mm 4 m/S 687 mmHg 35%
    17:00 +16°C° 0 mm 3 m/S 687 mmHg 41%
    18:00 +15°C° 0 mm 2 m/S 687 mmHg 47%
    19:00 +13°C° 0 mm 1 m/S 687 mmHg 53%
    20:00 +13°C° 0 mm 1 m/S 687 mmHg 53%
    21:00 +13°C° 0 mm 1 m/S 687 mmHg 54%
    22:00 +12°C° 0 mm 1 m/S 688 mmHg 55%
    23:00 +12°C° 0 mm 1 m/S 688 mmHg 55%

    Morgen, 22 November, Donnerstag

    Zeit Temperatur Niederschläge Wind Luftdruck Luftfeuchtigkeit
    00:00 +12°C° 0 mm 1 m/S 687 mmHg 55%
    01:00 +11°C° 0 mm 1 m/S 687 mmHg 55%
    02:00 +10°C° 0 mm 2 m/S 687 mmHg 54%
    03:00 +10°C° 0 mm 2 m/S 687 mmHg 53%
    04:00 +10°C° 0 mm 2 m/S 687 mmHg 53%
    05:00 +10°C° 0 mm 2 m/S 687 mmHg 53%
    06:00 +10°C° 0 mm 2 m/S 687 mmHg 54%
    07:00 +9°C° 0 mm 2 m/S 687 mmHg 54%
    08:00 +12°C° 0 mm 2 m/S 688 mmHg 49%
    09:00 +14°C° 0 mm 2 m/S 688 mmHg 44%
    10:00 +16°C° 0 mm 2 m/S 689 mmHg 38%
    11:00 +17°C° 0 mm 2 m/S 689 mmHg 35%
    12:00 +18°C° 0 mm 3 m/S 689 mmHg 32%
    13:00 +19°C° 0 mm 3 m/S 689 mmHg 29%
    14:00 +19°C° 0 mm 3 m/S 688 mmHg 30%
    15:00 +19°C° 0 mm 3 m/S 688 mmHg 30%
    16:00 +19°C° 0 mm 4 m/S 688 mmHg 31%
    17:00 +17°C° 0 mm 3 m/S 688 mmHg 35%
    18:00 +16°C° 0 mm 3 m/S 688 mmHg 40%
    19:00 +14°C° 0 mm 2 m/S 688 mmHg 45%
    20:00 +14°C° 0 mm 2 m/S 688 mmHg 46%
    21:00 +13°C° 0 mm 2 m/S 688 mmHg 47%
    22:00 +13°C° 0 mm 2 m/S 688 mmHg 48%
    23:00 +12°C° 0 mm 2 m/S 687 mmHg 49%

    übermorgen, 23 November, Freitag

    Zeit Temperatur Niederschläge Wind Luftdruck Luftfeuchtigkeit
    00:00 +12°C° 0 mm 2 m/S 687 mmHg 49%
    01:00 +11°C° 0 mm 3 m/S 687 mmHg 50%
    02:00 +10°C° 0 mm 3 m/S 687 mmHg 50%
    03:00 +10°C° 0 mm 2 m/S 687 mmHg 51%
    04:00 +10°C° 0 mm 2 m/S 686 mmHg 52%
    05:00 +9°C° 0 mm 2 m/S 686 mmHg 52%
    06:00 +9°C° 0 mm 2 m/S 686 mmHg 52%
    07:00 +9°C° 0 mm 2 m/S 686 mmHg 53%
    08:00 +10°C° 0 mm 3 m/S 687 mmHg 47%
    09:00 +12°C° 0 mm 3 m/S 688 mmHg 41%
    10:00 +14°C° 0 mm 4 m/S 688 mmHg 35%
    11:00 +15°C° 0 mm 4 m/S 688 mmHg 32%
    12:00 +16°C° 0 mm 5 m/S 688 mmHg 29%
    13:00 +17°C° 0 mm 6 m/S 688 mmHg 27%
    14:00 +17°C° 0 mm 5 m/S 687 mmHg 27%
    15:00 +17°C° 0 mm 5 m/S 687 mmHg 28%
    16:00 +18°C° 0 mm 4 m/S 687 mmHg 29%
    17:00 +17°C° 0 mm 4 m/S 687 mmHg 33%
    18:00 +14°C° 0 mm 3 m/S 686 mmHg 37%
    19:00 +13°C° 0 mm 3 m/S 686 mmHg 41%
    20:00 +13°C° 0 mm 3 m/S 687 mmHg 42%
    21:00 +12°C° 0 mm 3 m/S 687 mmHg 43%
    22:00 +12°C° 0 mm 3 m/S 687 mmHg 44%
    23:00 +13°C° 0 mm 2 m/S 687 mmHg 45%

    24 November, Samstag

    Zeit Temperatur Niederschläge Wind Luftdruck Luftfeuchtigkeit
    00:00 +13°C° 0 mm 2 m/S 687 mmHg 47%
    01:00 +12°C° 0 mm 2 m/S 686 mmHg 48%
    02:00 +12°C° 0 mm 2 m/S 686 mmHg 50%
    03:00 +11°C° 0 mm 1 m/S 686 mmHg 52%
    04:00 +11°C° 0 mm 1 m/S 685 mmHg 55%
    05:00 +11°C° 0 mm 1 m/S 685 mmHg 54%
    06:00 +11°C° 0 mm 1 m/S 686 mmHg 54%
    07:00 +11°C° 0 mm 1 m/S 686 mmHg 54%
    08:00 +12°C° 0 mm 1 m/S 687 mmHg 50%
    09:00 +14°C° 0 mm 1 m/S 687 mmHg 45%
    10:00 +14°C° 0 mm 0 m/S 688 mmHg 41%
    11:00 +15°C° 0 mm 0 m/S 687 mmHg 39%
    12:00 +16°C° 0 mm 0 m/S 687 mmHg 37%
    13:00 +16°C° 0 mm 0 m/S 687 mmHg 36%
    14:00 +19°C° 0 mm 1 m/S 686 mmHg 36%
    15:00 +19°C° 0 mm 1 m/S 686 mmHg 36%
    16:00 +18°C° 0 mm 2 m/S 686 mmHg 36%
    17:00 +17°C° 0 mm 2 m/S 686 mmHg 39%
    18:00 +16°C° 0 mm 2 m/S 685 mmHg 43%
    19:00 +15°C° 0 mm 2 m/S 685 mmHg 46%
    20:00 +14°C° 0.2 mm 2 m/S 685 mmHg 51%
    21:00 +14°C° 0.2 mm 2 m/S 685 mmHg 55%
    22:00 +13°C° 0.2 mm 2 m/S 685 mmHg 60%
    23:00 +13°C° 0.1 mm 2 m/S 685 mmHg 62%

    25 November, Sonntag

    Zeit Temperatur Niederschläge Wind Luftdruck Luftfeuchtigkeit
    00:00 +13°C° 0.1 mm 2 m/S 684 mmHg 63%
    01:00 +13°C° 0.1 mm 1 m/S 684 mmHg 65%
    02:00 +12°C° 0.1 mm 2 m/S 683 mmHg 67%
    03:00 +12°C° 0.1 mm 2 m/S 683 mmHg 68%
    04:00 +11°C° 0.1 mm 3 m/S 683 mmHg 70%
    05:00 +11°C° 0.3 mm 3 m/S 683 mmHg 72%
    06:00 +11°C° 0.3 mm 3 m/S 683 mmHg 75%
    07:00 +11°C° 0.3 mm 3 m/S 682 mmHg 78%
    08:00 +11°C° 0.4 mm 4 m/S 683 mmHg 78%
    09:00 +11°C° 0.4 mm 4 m/S 683 mmHg 78%
    10:00 +11°C° 0.4 mm 4 m/S 683 mmHg 78%
    11:00 +11°C° 0.4 mm 4 m/S 683 mmHg 77%
    12:00 +12°C° 0.4 mm 4 m/S 683 mmHg 76%
    13:00 +12°C° 0.4 mm 5 m/S 683 mmHg 75%
    14:00 +12°C° 0.2 mm 5 m/S 683 mmHg 75%
    15:00 +12°C° 0.2 mm 5 m/S 683 mmHg 75%
    16:00 +10°C° 0.2 mm 5 m/S 682 mmHg 76%
    17:00 +10°C° 0 mm 5 m/S 683 mmHg 77%
    18:00 +10°C° 0 mm 5 m/S 683 mmHg 78%
    19:00 +10°C° 0 mm 5 m/S 683 mmHg 79%
    20:00 +10°C° 0 mm 4 m/S 684 mmHg 81%
    21:00 +9°C° 0 mm 3 m/S 684 mmHg 84%
    22:00 +9°C° 0 mm 2 m/S 684 mmHg 86%
    23:00 +8°C° 0 mm 2 m/S 684 mmHg 86%

    26 November, Montag

    Zeit Temperatur Niederschläge Wind Luftdruck Luftfeuchtigkeit
    00:00 +8°C° 0 mm 2 m/S 684 mmHg 85%
    01:00 +8°C° 0 mm 2 m/S 683 mmHg 84%
    02:00 +8°C° 0 mm 2 m/S 683 mmHg 82%
    03:00 +8°C° 0 mm 2 m/S 683 mmHg 80%
    04:00 +8°C° 0 mm 2 m/S 683 mmHg 78%
    05:00 +8°C° 0 mm 2 m/S 683 mmHg 77%
    06:00 +8°C° 0 mm 2 m/S 683 mmHg 76%
    07:00 +8°C° 0 mm 2 m/S 684 mmHg 75%
    08:00 +9°C° 0 mm 3 m/S 684 mmHg 69%
    09:00 +11°C° 0 mm 3 m/S 685 mmHg 62%
    10:00 +12°C° 0 mm 3 m/S 685 mmHg 55%
    11:00 +13°C° 0 mm 3 m/S 685 mmHg 52%
    12:00 +14°C° 0 mm 4 m/S 685 mmHg 48%
    13:00 +15°C° 0 mm 4 m/S 685 mmHg 45%
    14:00 +15°C° 0 mm 4 m/S 685 mmHg 45%
    15:00 +15°C° 0 mm 4 m/S 685 mmHg 46%
    16:00 +16°C° 0 mm 3 m/S 685 mmHg 47%
    17:00 +14°C° 0 mm 3 m/S 685 mmHg 53%
    18:00 +14°C° 0 mm 2 m/S 685 mmHg 58%
    19:00 +13°C° 0 mm 1 m/S 685 mmHg 64%
    20:00 +12°C° 0 mm 1 m/S 685 mmHg 66%
    21:00 +12°C° 0 mm 1 m/S 685 mmHg 68%
    22:00 +12°C° 0 mm 1 m/S 685 mmHg 70%
    23:00 +11°C° 0 mm 1 m/S 685 mmHg 72%
    Mehr zeigen